COSMOS 249 DEB, 18602

Orbit data source: Space-Track

COSMOS 249 DEB, 18602 is space debris in LEO originally from a launch on Sun, 20 Oct 1968 UTC launched from the Tyuratam Missile And Space Complex (TTMTR). Debris objects in space refer to the collection of defunct objects orbiting the Earth. Examples of debris include non-operational satellites, rocket bodies, and fragments generated from explosions, collisions, or faulty payload assembly.

Loading next visibility...
Identifier
18602, 1968-091DG
Orbit
LEO
Country
Flag of CISCIS
Related business
Manufacturer
Unknown
Mission
Spacecraft
Bus & Motor
Unknown
Mass
Unknown
Launch date (UTC)
1968-10-20 (58 years ago)
Launch vehicle
Unknown
Launch site
Tyuratam Missile And Space Complex (TTMTR)
Object type
Payload
Rocket body
Debris
Shape & HBR
Unknown shape, 0.1 m
Radar Cross Section
Medium (>0.1 m² and <1 m²)

Expand to show TLE details & history
Last TLE update: 1 day ago

TLE from 1 day ago
0 COSMOS 249 DEB
1 18602U 68091DG  26171.46552479  .00000889  00000-0  10658-2 0  9997
2 18602  62.2329 176.8318 0626407 255.0046 266.1790 13.09648064645933
Epoch: 2026-06-20T11:10Z
TLE epoch observation values (Epoch: 2026-06-20T11:10:21.341Z)
Latitude
22.79369°
Longitude
-92.15466°
Altitude
1,287.215 km
Speed
7.186 km/s
True Right ascension
22h 56m 27s
True Declination
22° 40' 47"
Sunlit
Object was in daylight at epoch
Visualization orbit readout
Latitude
Unknown
Longitude
Unknown
Altitude
Unknown
Speed
Unknown
Apparent Right ascension
Unknown
Apparent Declination
Unknown
Sunlit
N/A
Visualization observer readout
Local Sidereal Time
05:00:26
Azimuth
Unknown
Elevation
Unknown
Doppler factor
Unknown
Orbital elements
Apogee altitude
1,699.681 km
Perigee altitude
747.337 km
Semi-major axis
7,601.646 km
Eccentricity
0.06264
Inclination
62.2329°
RAAN
176.8318°
Arg. of periapsis
255.0046°
True anomaly
259.0723°
Mean anomaly
266.179°
Eccentric anomaly
262.61969°
Mean motion
3.27478 °/min
Orbital period
109.93 mins
BSTAR
0.0010658
Loading maneuver chart data...
Computing Atmospheric mass density...
Loading historical data...
Loading historical data...
Loading historical data...
Loading historical data...
Loading historical data...
Loading historical data...
Loading historical data...

Documentation

Showing up to 5 results
|